Dothan, AL

6:56 PM CST on December 16, 2017 (GMT -0600)
Dothan Regional

Weather History for KDHN - February, 2013

Change the Weather History Date:

Tuesday, February 12, 2013

  Actual Average Record
Temperature  
Mean Temperature 58 °F 52 °F  
Max Temperature 61 °F 64 °F 79 °F (2017)
Min Temperature 55 °F 41 °F 20 °F (1955)
Degree Days  
Heating Degree Days 7 13  
Month to date heating degree days 118 167  
Since 1 July heating degree days 1024 1383  
Growing Degree Days 8 (Base 50)    
Moisture  
Dew Point 56 °F    
Average Humidity 95    
Maximum Humidity 100    
Minimum Humidity 82    
Precipitation  
Precipitation T in 0.18 in 2.47 in (1935)
Month to date precipitation 0.14 1.85  
Year to date precipitation 0.29 6.48  
Sea Level Pressure  
Sea Level Pressure 29.96 in    
Wind  
Wind Speed 6 mph (NE)    
Max Wind Speed 12 mph    
Max Gust Speed 21 mph    
Visibility 7 miles    
Events Fog , Rain    
T = Trace of Precipitation, MM = Missing Value Source: NWS Daily Summary

Daily Weather History Graph

Daily Weather History Graph

Search for Another Location

Airport or City:

Trip Planner

Search our weather history database for the weather conditions in past years. The results will help you decide how hot, cold, wet, or windy it might be!

Date:

Astronomy

Feb. 12, 2013 Rise Set
Actual Time 6:25 AM CST 5:26 PM CST
Civil Twilight 6:00 AM CST 5:51 PM CST
Nautical Twilight 5:32 AM CST 6:20 PM CST
Astronomical Twilight 5:03 AM CST 6:48 PM CST
Moon 7:36 AM CST (2/12) 8:11 PM CST (2/12)
Length of Visible Light 11h 50m
Length of Day
11h 01m
Waxing Crescent, 7% of the Moon is Illuminated
Feb 12
Waxing Crescent
Feb 17
First Quarter
Feb 25
Full
Mar 4
Last Quarter
Mar 11
New

Hourly Weather History & Observations

Time (CST) Temp. Dew Point Humidity Pressure Visibility Wind Dir Wind Speed Gust Speed Precip Events Conditions
12:05 AM 57.2 °F 57.2 °F 100% 30.10 in 10.0 mi NE 5.8 mph - N/A   Overcast
12:14 AM 57.2 °F 57.2 °F 100% 30.10 in 10.0 mi Calm Calm - N/A   Overcast
12:53 AM 57.9 °F 57.0 °F 97% 30.10 in 10.0 mi North 5.8 mph - N/A   Overcast
1:00 AM 57.2 °F 57.2 °F 100% 30.11 in 10.0 mi NNE 5.8 mph - N/A   Overcast
1:10 AM 57.2 °F 57.2 °F 100% 30.10 in 10.0 mi Calm Calm - N/A   Overcast
1:45 AM 57.2 °F 55.4 °F 94% 30.09 in 10.0 mi ENE 3.5 mph - N/A   Overcast
1:53 AM 57.9 °F 55.9 °F 93% 30.08 in 10.0 mi East 5.8 mph - N/A   Overcast
2:36 AM 57.2 °F 55.4 °F 94% 30.08 in 10.0 mi NNE 4.6 mph - N/A   Overcast
2:53 AM 57.0 °F 55.9 °F 96% 30.08 in 10.0 mi NE 4.6 mph - N/A   Overcast
3:28 AM 57.2 °F 55.4 °F 94% 30.08 in 10.0 mi North 5.8 mph - N/A   Overcast
3:53 AM 57.0 °F 55.9 °F 96% 30.08 in 8.0 mi NNE 5.8 mph - N/A   Overcast
4:36 AM 57.2 °F 55.4 °F 94% 30.09 in 1.8 mi NNE 8.1 mph - N/A   Overcast
4:49 AM 57.2 °F 55.4 °F 94% 30.10 in 0.5 mi North 8.1 mph - N/A Fog Fog
4:53 AM 57.0 °F 55.9 °F 96% 30.09 in 0.5 mi North 10.4 mph - N/A Fog Fog
5:15 AM 55.4 °F 55.4 °F 100% 30.10 in 1.0 mi North 9.2 mph - N/A   Mist
5:29 AM 55.4 °F 55.4 °F 100% 30.10 in 3.0 mi NNE 9.2 mph - N/A   Overcast
5:53 AM 55.9 °F 55.0 °F 97% 30.09 in 5.0 mi NNE 10.4 mph - N/A   Overcast
6:53 AM 55.0 °F 54.0 °F 96% 30.09 in 10.0 mi NE 8.1 mph - N/A   Overcast
7:31 AM 55.4 °F 53.6 °F 94% 30.10 in 10.0 mi NNE 8.1 mph - N/A   Overcast
7:53 AM 55.9 °F 54.0 °F 93% 30.11 in 10.0 mi NE 8.1 mph - N/A   Overcast
8:53 AM 55.9 °F 53.1 °F 90% 30.09 in 10.0 mi ENE 9.2 mph - N/A   Overcast
9:53 AM 57.0 °F 54.0 °F 89% 30.08 in 10.0 mi East 10.4 mph - N/A   Overcast
10:53 AM 59.0 °F 55.0 °F 87% 30.06 in 10.0 mi East 8.1 mph - N/A   Overcast
11:12 AM 60.8 °F 55.4 °F 82% 30.06 in 10.0 mi East 6.9 mph - N/A   Overcast
11:53 AM 61.0 °F 55.9 °F 83% 30.04 in 10.0 mi ENE 8.1 mph - N/A   Overcast
12:53 PM 60.1 °F 55.9 °F 86% 30.00 in 10.0 mi ENE 5.8 mph - N/A   Overcast
1:53 PM 60.1 °F 55.9 °F 86% 29.94 in 10.0 mi East 5.8 mph - N/A   Overcast
2:39 PM 60.8 °F 57.2 °F 88% 29.90 in 10.0 mi East 10.4 mph 17.3 mph N/A   Overcast
2:53 PM 60.1 °F 55.9 °F 86% 29.89 in 10.0 mi East 8.1 mph 17.3 mph N/A   Overcast
3:53 PM 59.0 °F 57.0 °F 93% 29.85 in 10.0 mi East 9.2 mph - N/A   Overcast
4:25 PM 57.2 °F 57.2 °F 100% 29.82 in 10.0 mi ESE 9.2 mph 20.7 mph 0.00 in Rain Light Rain
4:53 PM 57.9 °F 57.9 °F 100% 29.81 in 1.5 mi SE 9.2 mph - N/A Rain Heavy Rain
5:11 PM 57.2 °F 57.2 °F 100% 29.82 in 2.0 mi NNE 9.2 mph - N/A Rain Heavy Rain
5:19 PM 57.2 °F 57.2 °F 100% 29.83 in 1.5 mi NE 6.9 mph - N/A Rain Heavy Rain
5:24 PM 57.2 °F 57.2 °F 100% 29.82 in 1.8 mi ENE 10.4 mph - N/A Rain Heavy Rain
5:32 PM 57.2 °F 57.2 °F 100% 29.84 in 3.0 mi North 9.2 mph - N/A Rain Rain
5:39 PM 57.2 °F 57.2 °F 100% 29.85 in 4.0 mi NNW 9.2 mph - N/A Rain Heavy Rain
5:53 PM 57.9 °F 57.0 °F 97% 29.85 in 4.0 mi NNW 11.5 mph 18.4 mph N/A Rain Rain
6:06 PM 57.2 °F 57.2 °F 100% 29.86 in 10.0 mi North 6.9 mph - N/A Rain Light Rain
6:53 PM 57.0 °F 57.0 °F 100% 29.84 in 8.0 mi NE 4.6 mph - N/A Rain Light Rain
7:04 PM 57.2 °F 57.2 °F 100% 29.84 in 6.0 mi NE 5.8 mph - N/A Rain Light Rain
7:19 PM 57.2 °F 55.4 °F 94% 29.82 in 1.8 mi NNE 9.2 mph - N/A Rain Heavy Rain
7:26 PM 57.2 °F 55.4 °F 94% 29.84 in 2.0 mi East 4.6 mph - N/A Rain Rain
7:39 PM 57.2 °F 55.4 °F 94% 29.85 in 5.0 mi North 4.6 mph - N/A Rain Light Rain
7:50 PM 57.2 °F 55.4 °F 94% 29.85 in 6.0 mi North 4.6 mph - N/A Rain Heavy Rain
7:53 PM 57.0 °F 55.9 °F 96% 29.84 in 5.0 mi North 4.6 mph - N/A Rain Heavy Rain
8:43 PM 57.2 °F 55.4 °F 94% 29.85 in 10.0 mi NNE 6.9 mph - N/A   Overcast
8:53 PM 57.0 °F 55.9 °F 96% 29.85 in 10.0 mi NE 6.9 mph - N/A   Overcast
9:53 PM 57.0 °F 55.9 °F 96% 29.83 in 10.0 mi Calm Calm - N/A   Overcast
10:02 PM 57.2 °F 55.4 °F 94% 29.83 in 10.0 mi ENE 3.5 mph - N/A   Overcast
10:53 PM 57.0 °F 55.9 °F 96% 29.82 in 10.0 mi Calm Calm - N/A   Overcast
11:53 PM 57.9 °F 57.0 °F 97% 29.81 in 10.0 mi North 3.5 mph - N/A   Overcast